Flag for Italy Weather past 2 weeks in Bologna, Italy

Now
79 °F

Sunny.


Feels Like: 80 °F
Forecast: 62 / 80 °F
Wind: 6 mph from North

Location: Bologna / Borgo Panigale

Current Time: Aug 21, 2014 at 1:09:58 PM

Latest Report: Aug 21, 2014 at 12:20 PM


Visibility: 10 mi

Pressure: 29.95 "Hg

Humidity: 54%

Dew point: 61 °F

Location of BolognaLocation

Historic Weather in Bologna — Graph

°F

Bologna temperature yesterday

Maximum temperature yesterday: 82 °F (at 3:20 PM)
Minimum temperature yesterday: 66 °F (at 12:20 AM)
Average temperature yesterday: 72 °F

Past Weeks' High & Low Weather Summary

 TemperatureHumidityPressure
High91 °F (Aug 10, 4:50 PM)100% (Aug 16, 9:20 AM)30.09 "Hg (Aug 16, 9:20 AM)
Low55 °F (Aug 17, 5:50 AM)31% (Aug 6, 4:20 PM)29.68 "Hg (Aug 13, 2:20 PM)
Average75 °F64%29.90 "Hg
* Reported Aug 6 11:20 AM — Aug 21 11:50 AM, Bologna, Weather by CustomWeather, © 2014

Note: Actual official high and low records may vary slightly from our data, if they occured in-between our weather recording intervals... More about our weather records

Advertising

Bologna weather history for previous 24 hours

 ConditionsComfort  
Time TempWeatherWind HumidityBarometerVisibility
11:50 AM
Aug 21
79 °FPassing clouds.6 mph54%29.95 "HgN/A
11:20 AM77 °FPassing clouds.6 mph57%29.95 "HgN/A
10:50 AM77 °FSunny.3 mph57%29.95 "Hg10 mi
10:20 AM75 °FSunny.1 mph65%29.95 "Hg10 mi
9:50 AM73 °FSunny.1 mph65%29.95 "Hg10 mi
9:20 AM70 °FSunny.1 mph78%29.92 "Hg10 mi
8:50 AM66 °FSunny.2 mph78%29.92 "Hg10 mi
8:20 AM66 °FSunny.2 mph78%29.92 "Hg10 mi
7:50 AM64 °FSunny.5 mph78%29.92 "Hg10 mi
7:20 AM64 °FClear.1 mph88%29.89 "Hg10 mi
6:50 AM64 °FClear.2 mph83%29.89 "Hg10 mi
6:20 AM63 °FClear.5 mph88%29.89 "Hg10 mi
5:50 AM64 °FClear.2 mph83%29.89 "Hg10 mi
5:20 AM64 °FClear.5 mph83%29.86 "Hg10 mi
4:50 AM64 °FClear.6 mph83%29.89 "Hg10 mi
4:20 AM66 °FPassing clouds.6 mph83%29.89 "HgN/A
3:50 AM68 °FPassing clouds.6 mph88%29.89 "HgN/A
3:20 AM68 °FPassing clouds.5 mph83%29.89 "HgN/A
2:50 AM68 °FPassing clouds.5 mph88%29.89 "HgN/A
2:20 AM66 °FPassing clouds.5 mph88%29.86 "HgN/A
1:50 AM68 °FClear.7 mph78%29.86 "Hg10 mi
1:20 AM68 °FClear.3 mph78%29.86 "Hg10 mi
12:50 AM66 °FClear.6 mph88%29.86 "Hg10 mi
12:20 AM66 °FClear.3 mph83%29.83 "Hg10 mi
11:50 PM
Aug 20
66 °FClear.No wind94%29.86 "Hg10 mi
11:20 PM68 °FClear.2 mph88%29.86 "Hg10 mi
10:50 PM70 °FPassing clouds.5 mph88%29.86 "HgN/A
10:20 PM72 °FPassing clouds.6 mph83%29.89 "HgN/A
9:50 PM72 °FClear.6 mph78%29.89 "Hg10 mi
9:20 PM72 °FClear.6 mph78%29.86 "Hg10 mi
8:50 PM73 °FSunny.8 mph74%29.86 "Hg10 mi
8:20 PM73 °FPassing clouds.12 mph74%29.86 "HgN/A
7:50 PM75 °FPassing clouds.10 mph74%29.86 "HgN/A
7:20 PM75 °FPassing clouds.8 mph74%29.86 "HgN/A
6:50 PM77 °FPassing clouds.9 mph74%29.86 "HgN/A
6:20 PM77 °FPassing clouds.9 mph69%29.86 "HgN/A
5:50 PM77 °FScattered clouds.8 mph74%29.89 "HgN/A
5:20 PM79 °FScattered clouds.8 mph70%29.89 "HgN/A
4:50 PM79 °FScattered clouds.9 mph70%29.89 "HgN/A
4:20 PM79 °FScattered clouds.10 mph70%29.89 "HgN/A
3:50 PM79 °FScattered clouds.10 mph70%29.89 "HgN/A
3:20 PM82 °FScattered clouds.5 mph66%29.89 "HgN/A
2:50 PM81 °FScattered clouds.5 mph66%29.89 "HgN/A
2:20 PM81 °FScattered clouds.3 mph62%29.92 "HgN/A
1:50 PM79 °FScattered clouds.8 mph70%29.92 "HgN/A
1:20 PM79 °FScattered clouds.6 mph65%29.92 "HgN/A
Weather by CustomWeather, © 2014

See weather overviewHow to use our weather pages